Home   Weather   Colchester   Past weeks

Flag for United Kingdom Past Weather in Colchester, England, United Kingdom — Yesterday and Last 2 Weeks

Now
36 °F

Chilly.


Feels Like: 30 °F
Forecast: 27 / 44 °F
Wind: 7 mph from Southwest

Location: Luton Airport

Current Time: Jan 24, 2017 at 5:38:56 am

Latest Report: Jan 24, 2017 at 4:50 am


Visibility: N/A

Pressure: 30.30 "Hg

Humidity: 87%

Dew Point: 32 °F

Location of ColchesterLocation

Past Weather in Colchester — Graph

°F

Colchester Temperature Yesterday

Maximum temperature yesterday: 41 °F (at 12:50 pm)
Minimum temperature yesterday: 27 °F (at 4:20 am)
Average temperature yesterday: 36 °F

High & Low Weather Summary for the Past Weeks

 TemperatureHumidityPressure
High48 °F (Jan 11, 6:20 am)100% (Jan 9, 4:20 am)30.66 "Hg (Jan 9, 4:20 am)
Low25 °F (Jan 21, 11:20 pm)48% (Jan 18, 3:20 pm)29.33 "Hg (Jan 12, 5:50 pm)
Average36 °F89%30.19 "Hg
* Reported Jan 9 4:20 am — Jan 24 4:20 am, Colchester, Weather by CustomWeather, © 2017

Note: Actual official high and low records may vary slightly from our data, if they occured in-between our weather recording intervals... More about our weather records

Advertising

Colchester Weather History for the Previous 24 Hours

Scroll right to see more
 ConditionsComfort  
Time TempWeatherWind HumidityBarometerVisibility
4:20 am
Tue, Jan 24
34 °FChilly.6 mph87%30.30 "HgN/A
3:50 am36 °FChilly.8 mph87%30.30 "HgN/A
3:20 am36 °FChilly.8 mph87%30.30 "HgN/A
2:50 am36 °FChilly.8 mph93%30.30 "HgN/A
2:20 am36 °FChilly.6 mph87%30.30 "HgN/A
1:50 am37 °FChilly.9 mph87%30.30 "HgN/A
1:20 am39 °FChilly.8 mph81%30.30 "HgN/A
12:50 am39 °FOvercast.7 mph87%30.30 "HgN/A
12:20 am39 °FOvercast.8 mph87%30.30 "HgN/A
11:50 pm
Mon, Jan 23
39 °FChilly.6 mph87%30.30 "Hg6 mi
11:20 pm39 °FOvercast.6 mph87%30.33 "HgN/A
10:50 pm39 °FOvercast.5 mph87%30.33 "HgN/A
10:20 pm39 °FOvercast.5 mph87%30.33 "HgN/A
9:50 pm37 °FOvercast.7 mph93%30.33 "Hg6 mi
9:20 pm37 °FOvercast.6 mph93%30.33 "Hg4 mi
8:50 pm37 °FOvercast.2 mph93%30.30 "Hg4 mi
8:20 pm37 °FFog.5 mph93%30.30 "Hg3 mi
7:50 pm37 °FOvercast.5 mph93%30.30 "Hg3 mi
7:20 pm37 °FOvercast.6 mph100%30.33 "Hg3 mi
6:50 pm37 °FFog.6 mph93%30.33 "Hg3 mi
6:20 pm37 °FOvercast.6 mph93%30.33 "Hg3 mi
5:50 pm37 °FOvercast.5 mph93%30.33 "Hg3 mi
5:20 pm37 °FOvercast.2 mph93%30.33 "Hg4 mi
4:50 pm39 °FOvercast.5 mph87%30.30 "Hg4 mi
4:20 pm39 °FOvercast.3 mph93%30.30 "Hg4 mi
3:50 pm39 °FOvercast.1 mph93%30.30 "Hg4 mi
3:20 pm41 °FOvercast.3 mph87%30.30 "Hg5 mi
2:50 pm41 °FOvercast.5 mph87%30.30 "Hg5 mi
2:20 pm41 °FOvercast.3 mph87%30.30 "Hg5 mi
1:50 pm41 °FOvercast.5 mph87%30.30 "Hg4 mi
1:20 pm41 °FOvercast.5 mph87%30.33 "Hg4 mi
12:50 pm41 °FPartly sunny.6 mph87%30.33 "Hg4 mi
12:20 pm39 °FOvercast.5 mph93%30.33 "Hg4 mi
11:50 am39 °FOvercast.5 mph93%30.33 "Hg4 mi
11:20 am39 °FOvercast.6 mph93%30.36 "Hg4 mi
10:50 am39 °FChilly.9 mph93%30.36 "Hg4 mi
10:20 am37 °FChilly.9 mph93%30.36 "Hg4 mi
9:50 am37 °FOvercast.8 mph93%30.33 "Hg4 mi
9:20 am37 °FFog.8 mph93%30.33 "Hg3 mi
8:50 am34 °FFog.5 mph100%30.33 "Hg1 mi
8:20 am34 °FFog.2 mph100%30.33 "Hg1 mi
7:50 am34 °FFog.3 mph100%30.33 "Hg2 mi
7:20 am32 °FIce fog.2 mph100%30.33 "Hg3 mi
6:50 am32 °FIce fog.3 mph100%30.33 "Hg2 mi
6:20 am32 °FIce fog.2 mph100%30.33 "Hg2 mi
5:50 am32 °FIce fog.5 mph100%30.33 "Hg1 mi
5:20 am32 °FIce fog.3 mph100%30.33 "Hg1 mi
Weather by CustomWeather, © 2017

See weather overviewHow to use our weather pages